,,PA_Meas_PMT16A,,PR_Meas_QMR101_102,,RH_Meas_QMH101,,SR_Meas_QMS101,,TA_Meas_QMH101,,GenWind,,GenWind,
time,status,PA,status,PR,status,RH,status,SR,status,TA,status,DirAvg,status,SpdAvg,
2015-04-26, 07:02:04,VALID,917.585,VALID,0,VALID,97.2214,VALID,100.565,VALID,18.572,VALID,152,VALID,0,
2015-04-26, 07:03:04,VALID,917.638,VALID,0,VALID,97.1909,VALID,111.524,VALID,18.6513,VALID,157,VALID,0.417969,
2015-04-26, 07:04:04,VALID,917.632,VALID,0,VALID,97.1452,VALID,113.673,VALID,18.7293,VALID,163,VALID,0.0660156,
2015-04-26, 07:05:04,VALID,917.629,VALID,0,VALID,97.069,VALID,116.144,VALID,18.7864,VALID,167,VALID,0.0984375,
2015-04-26, 07:06:04,VALID,917.632,VALID,0,VALID,96.9927,VALID,118.937,VALID,18.8463,VALID,160,VALID,0.233984,
2015-04-26, 07:07:04,VALID,917.664,VALID,0,VALID,96.825,VALID,121.301,VALID,18.9633,VALID,161,VALID,0,
2015-04-26, 07:08:04,VALID,917.704,VALID,0,VALID,96.5734,VALID,123.45,VALID,19.0203,VALID,174,VALID,0,
2015-04-26, 07:09:04,VALID,917.699,VALID,0,VALID,96.1923,VALID,126.243,VALID,19.1373,VALID,166,VALID,0.0105469,
2015-04-26, 07:10:04,VALID,917.699,VALID,0,VALID,95.773,VALID,128.714,VALID,19.2153,VALID,158,VALID,0,
2015-04-26, 07:11:04,VALID,917.723,VALID,0,VALID,95.2393,VALID,131.293,VALID,19.2738,VALID,164,VALID,0,
2015-04-26, 07:12:04,VALID,917.716,VALID,0,VALID,94.6447,VALID,133.657,VALID,19.3713,VALID,171,VALID,0,
2015-04-26, 07:13:04,VALID,917.75,VALID,0,VALID,94.1873,VALID,136.235,VALID,19.4883,VALID,164,VALID,0,
2015-04-26, 07:14:04,VALID,917.756,VALID,0,VALID,93.6613,VALID,138.169,VALID,19.5858,VALID,166,VALID,0,
2015-04-26, 07:15:04,VALID,917.769,VALID,0,VALID,91.9231,VALID,140.211,VALID,19.6428,VALID,156,VALID,0,
2015-04-26, 07:16:04,VALID,917.76,VALID,0,VALID,91.8164,VALID,143.326,VALID,19.7808,VALID,171,VALID,0,
2015-04-26, 07:17:04,VALID,917.746,VALID,0,VALID,90.8787,VALID,145.69,VALID,19.8768,VALID,154,VALID,0,
2015-04-26, 07:18:04,VALID,917.76,VALID,0,VALID,89.5446,VALID,148.161,VALID,19.9368,VALID,140,VALID,0,
2015-04-26, 07:19:04,VALID,917.751,VALID,0,VALID,89.4989,VALID,149.988,VALID,19.9758,VALID,152,VALID,0,
2015-04-26, 07:20:04,VALID,917.769,VALID,0,VALID,89.659,VALID,152.137,VALID,20.0523,VALID,149,VALID,0,
2015-04-26, 07:21:04,VALID,917.813,VALID,0,VALID,89.842,VALID,154.823,VALID,20.1708,VALID,152,VALID,0,
2015-04-26, 07:22:04,VALID,917.8,VALID,0,VALID,89.2168,VALID,157.186,VALID,20.2668,VALID,152,VALID,0,
2015-04-26, 07:23:04,VALID,917.819,VALID,0,VALID,87.9209,VALID,160.195,VALID,20.3854,VALID,154,VALID,0,
2015-04-26, 07:24:04,VALID,917.837,VALID,0,VALID,87.5778,VALID,163.096,VALID,20.4618,VALID,143,VALID,0,
2015-04-26, 07:25:04,VALID,917.845,VALID,0,VALID,88.2334,VALID,165.459,VALID,20.5594,VALID,167,VALID,0,
2015-04-26, 07:26:04,VALID,917.854,VALID,0,VALID,88.0047,VALID,167.286,VALID,20.639,VALID,179,VALID,0,
2015-04-26, 07:27:04,VALID,917.859,VALID,0,VALID,87.8218,VALID,170.187,VALID,20.7154,VALID,173,VALID,0,
2015-04-26, 07:28:04,VALID,917.879,VALID,0,VALID,87.0823,VALID,173.303,VALID,20.6764,VALID,140,VALID,0,
2015-04-26, 07:29:04,VALID,917.845,VALID,0,VALID,86.6401,VALID,175.022,VALID,20.5789,VALID,141,VALID,0,
2015-04-26, 07:30:04,VALID,917.863,VALID,0,VALID,86.9832,VALID,177.493,VALID,20.5009,VALID,142,VALID,0,
2015-04-26, 07:31:04,VALID,917.842,VALID,0,VALID,87.5778,VALID,179.856,VALID,20.4213,VALID,135,VALID,0,
2015-04-26, 07:32:04,VALID,917.869,VALID,0,VALID,88.3249,VALID,182.22,VALID,20.4829,VALID,135,VALID,0,
2015-04-26, 07:33:04,VALID,917.851,VALID,0,VALID,87.6693,VALID,185.229,VALID,20.4618,VALID,154,VALID,0,
2015-04-26, 07:34:04,VALID,917.881,VALID,0,VALID,87.8446,VALID,188.667,VALID,20.4829,VALID,168,VALID,0,
2015-04-26, 07:35:04,VALID,917.863,VALID,0,VALID,88.0657,VALID,192.642,VALID,20.4813,VALID,133,VALID,0.794922,
2015-04-26, 07:36:04,VALID,917.898,VALID,0,VALID,87.4406,VALID,195.65,VALID,20.4634,VALID,142,VALID,1.50078,
2015-04-26, 07:37:04,VALID,917.884,VALID,0,VALID,88.3249,VALID,199.411,VALID,20.4813,VALID,135,VALID,0.726172,
2015-04-26, 07:38:04,VALID,917.897,VALID,0,VALID,87.7608,VALID,203.279,VALID,20.5399,VALID,146,VALID,0.0105469,
2015-04-26, 07:39:04,VALID,917.908,VALID,0,VALID,87.4177,VALID,207.469,VALID,20.5399,VALID,167,VALID,0.0105469,
2015-04-26, 07:40:04,VALID,917.927,VALID,0,VALID,87.2195,VALID,211.014,VALID,20.5399,VALID,175,VALID,0.453516,
2015-04-26, 07:41:04,VALID,917.957,VALID,0,VALID,87.4406,VALID,214.775,VALID,20.5399,VALID,173,VALID,0,
2015-04-26, 07:42:04,VALID,917.951,VALID,0,VALID,87.9209,VALID,217.783,VALID,20.5399,VALID,165,VALID,0,
2015-04-26, 07:43:04,VALID,917.983,VALID,0,VALID,87.5168,VALID,221.006,VALID,20.5789,VALID,139,VALID,0,
2015-04-26, 07:44:04,VALID,917.994,VALID,0,VALID,87.8141,VALID,223.692,VALID,20.5984,VALID,134,VALID,0.00273437,
2015-04-26, 07:45:04,VALID,917.987,VALID,0,VALID,87.8446,VALID,226.593,VALID,20.6179,VALID,148,VALID,0,
2015-04-26, 07:46:04,VALID,917.99,VALID,0,VALID,87.5397,VALID,229.924,VALID,20.6764,VALID,135,VALID,0,
2015-04-26, 07:47:04,VALID,918.011,VALID,0,VALID,87.6388,VALID,233.362,VALID,20.7349,VALID,129,VALID,0,
2015-04-26, 07:48:04,VALID,918.023,VALID,0,VALID,87.8141,VALID,237.66,VALID,20.8519,VALID,134,VALID,0,
2015-04-26, 07:49:04,VALID,918.05,VALID,0,VALID,88.0581,VALID,241.098,VALID,21.0275,VALID,93,VALID,0,
2015-04-26, 07:50:04,VALID,918.07,VALID,0,VALID,87.6007,VALID,243.891,VALID,21.164,VALID,69,VALID,0,
2015-04-26, 07:51:04,VALID,918.06,VALID,0,VALID,86.785,VALID,246.363,VALID,21.2795,VALID,108,VALID,0,
2015-04-26, 07:52:04,VALID,918.07,VALID,0,VALID,86.6401,VALID,249.693,VALID,21.416,VALID,60,VALID,0,
2015-04-26, 07:53:04,VALID,918.072,VALID,0,VALID,86.3352,VALID,254.206,VALID,21.5737,VALID,60,VALID,0,
2015-04-26, 07:54:04,VALID,918.068,VALID,0,VALID,85.8549,VALID,258.289,VALID,21.746,VALID,60,VALID,0,
2015-04-26, 07:55:04,VALID,918.059,VALID,0,VALID,84.5437,VALID,261.082,VALID,21.9818,VALID,86,VALID,0,
2015-04-26, 07:56:04,VALID,918.053,VALID,0,VALID,82.5159,VALID,263.231,VALID,22.0989,VALID,159,VALID,0,
2015-04-26, 07:57:04,VALID,918.098,VALID,0,VALID,81.6849,VALID,266.669,VALID,22.1574,VALID,188,VALID,0,
2015-04-26, 07:58:04,VALID,918.088,VALID,0,VALID,81.2275,VALID,269.14,VALID,22.1379,VALID,173,VALID,0,
2015-04-26, 07:59:04,VALID,918.09,VALID,0,VALID,81.8298,VALID,272.148,VALID,22.0598,VALID,151,VALID,0,
2015-04-26, 08:00:04,VALID,918.117,VALID,0,VALID,81.8907,VALID,275.049,VALID,22.0598,VALID,149,VALID,0,
2015-04-26, 08:01:04,VALID,918.128,VALID,0,VALID,82.3329,VALID,278.487,VALID,22.1201,VALID,149,VALID,0,
2015-04-26, 08:02:04,VALID,918.123,VALID,0,VALID,82.371,VALID,281.603,VALID,22.1379,VALID,117,VALID,0,
2015-04-26, 08:03:04,VALID,918.16,VALID,0,VALID,82.9351,VALID,286.975,VALID,22.255,VALID,113,VALID,0,
2015-04-26, 08:04:04,VALID,918.142,VALID,0,VALID,82.5616,VALID,288.802,VALID,22.2762,VALID,113,VALID,0,
2015-04-26, 08:05:04,VALID,918.182,VALID,0,VALID,82.188,VALID,291.81,VALID,22.255,VALID,79,VALID,0,
2015-04-26, 08:06:04,VALID,918.174,VALID,0,VALID,83.1334,VALID,294.496,VALID,22.3135,VALID,74,VALID,0,
2015-04-26, 08:07:04,VALID,918.198,VALID,0,VALID,80.7396,VALID,297.612,VALID,22.3525,VALID,93,VALID,0,
2015-04-26, 08:08:04,VALID,918.222,VALID,0,VALID,82.9123,VALID,300.191,VALID,22.372,VALID,83,VALID,0,
2015-04-26, 08:09:04,VALID,918.223,VALID,0,VALID,82.958,VALID,303.414,VALID,22.4696,VALID,65,VALID,0,
2015-04-26, 08:10:04,VALID,918.235,VALID,0,VALID,82.1499,VALID,306.744,VALID,22.6647,VALID,65,VALID,0,
2015-04-26, 08:11:04,VALID,918.255,VALID,0,VALID,81.2275,VALID,310.72,VALID,22.8989,VALID,65,VALID,0,
2015-04-26, 08:12:04,VALID,918.254,VALID,0,VALID,79.7714,VALID,310.075,VALID,23.0746,VALID,112,VALID,0,
2015-04-26, 08:13:04,VALID,918.249,VALID,0,VALID,79.1158,VALID,316.307,VALID,23.0746,VALID,92,VALID,0,
2015-04-26, 08:14:04,VALID,918.285,VALID,0,VALID,79.7486,VALID,321.142,VALID,23.1136,VALID,56,VALID,0,
2015-04-26, 08:15:04,VALID,918.276,VALID,0,VALID,78.849,VALID,325.009,VALID,23.2307,VALID,58,VALID,0,
2015-04-26, 08:16:04,VALID,918.315,VALID,0,VALID,79.0091,VALID,330.167,VALID,23.2502,VALID,105,VALID,0,
2015-04-26, 08:17:04,VALID,918.318,VALID,0,VALID,78.4145,VALID,333.82,VALID,23.229,VALID,112,VALID,0,
2015-04-26, 08:18:04,VALID,918.344,VALID,0,VALID,76.6153,VALID,337.043,VALID,23.1704,VALID,86,VALID,0.389062,
2015-04-26, 08:19:04,VALID,918.373,VALID,0,VALID,77.3091,VALID,341.77,VALID,23.0533,VALID,116,VALID,0,
2015-04-26, 08:20:04,VALID,918.359,VALID,0,VALID,78.0257,VALID,345.316,VALID,22.977,VALID,139,VALID,0,
2015-04-26, 08:21:04,VALID,918.398,VALID,0,VALID,78.8414,VALID,352.622,VALID,22.9167,VALID,164,VALID,0,
2015-04-26, 08:22:04,VALID,918.413,VALID,0,VALID,80.2593,VALID,361.754,VALID,22.9557,VALID,174,VALID,0,
2015-04-26, 08:23:04,VALID,918.402,VALID,0,VALID,79.6876,VALID,370.887,VALID,22.9753,VALID,173,VALID,0,
2015-04-26, 08:24:04,VALID,918.397,VALID,0,VALID,80.023,VALID,385.069,VALID,22.9965,VALID,155,VALID,0,
2015-04-26, 08:25:04,VALID,918.419,VALID,0,VALID,78.3763,VALID,395.491,VALID,23.0551,VALID,166,VALID,0,
2015-04-26, 08:26:04,VALID,918.451,VALID,0,VALID,79.619,VALID,407.095,VALID,23.0551,VALID,176,VALID,0,
2015-04-26, 08:27:04,VALID,918.45,VALID,0,VALID,78.8566,VALID,419.773,VALID,23.0356,VALID,169,VALID,0,
2015-04-26, 08:28:04,VALID,918.499,VALID,0,VALID,78.4602,VALID,434.277,VALID,22.9185,VALID,170,VALID,0,
2015-04-26, 08:29:04,VALID,918.528,VALID,0,VALID,79.7867,VALID,445.021,VALID,22.8989,VALID,157,VALID,0,
2015-04-26, 08:30:04,VALID,918.537,VALID,0,VALID,79.8248,VALID,454.906,VALID,22.8599,VALID,144,VALID,0.0398437,
2015-04-26, 08:31:04,VALID,918.551,VALID,0,VALID,81.0064,VALID,466.617,VALID,22.9575,VALID,154,VALID,0,
2015-04-26, 08:32:04,VALID,918.572,VALID,0,VALID,79.9696,VALID,477.683,VALID,23.0941,VALID,161,VALID,0,
2015-04-26, 08:33:04,VALID,918.575,VALID,0,VALID,79.3369,VALID,480.155,VALID,23.1899,VALID,147,VALID,0,
2015-04-26, 08:34:04,VALID,918.55,VALID,0,VALID,79.8858,VALID,484.989,VALID,23.268,VALID,174,VALID,0.173047,
2015-04-26, 08:35:04,VALID,918.539,VALID,0,VALID,79.6799,VALID,481.659,VALID,23.3851,VALID,171,VALID,0.0078125,
2015-04-26, 08:36:04,VALID,918.537,VALID,0,VALID,79.5732,VALID,478.543,VALID,23.5626,VALID,139,VALID,0,
2015-04-26, 08:37:04,VALID,918.49,VALID,0,VALID,80.1755,VALID,475.105,VALID,23.7364,VALID,135,VALID,0.274219,
2015-04-26, 08:38:04,VALID,918.476,VALID,0,VALID,77.7588,VALID,472.419,VALID,23.8944,VALID,86,VALID,0,
2015-04-26, 08:39:04,VALID,918.491,VALID,0,VALID,77.5149,VALID,476.501,VALID,23.9707,VALID,119,VALID,0,
2015-04-26, 08:40:04,VALID,918.494,VALID,0,VALID,77.2404,VALID,481.981,VALID,24.0878,VALID,95,VALID,0.040625,
2015-04-26, 08:41:04,VALID,918.497,VALID,0,VALID,77.6369,VALID,491.758,VALID,24.0665,VALID,131,VALID,1.47656,
2015-04-26, 08:42:04,VALID,918.457,VALID,0,VALID,79.1234,VALID,503.039,VALID,24.0488,VALID,114,VALID,1.39141,
2015-04-26, 08:43:04,VALID,918.472,VALID,0,VALID,78.2162,VALID,513.784,VALID,24.1641,VALID,165,VALID,0.144531,
2015-04-26, 08:44:04,VALID,918.484,VALID,0,VALID,73.6346,VALID,511.42,VALID,24.244,VALID,140,VALID,1.7875,
2015-04-26, 08:45:04,VALID,918.497,VALID,0,VALID,76.2265,VALID,454.369,VALID,24.2049,VALID,102,VALID,0.600781,
2015-04-26, 08:46:04,VALID,918.494,VALID,0,VALID,75.9826,VALID,410.103,VALID,24.244,VALID,70,VALID,1.88906,
2015-04-26, 08:47:04,VALID,918.511,VALID,0,VALID,75.0602,VALID,443.087,VALID,24.1854,VALID,99,VALID,0.241016,
2015-04-26, 08:48:04,VALID,918.514,VALID,0,VALID,76.9203,VALID,468.873,VALID,24.0665,VALID,115,VALID,1.72891,
2015-04-26, 08:49:04,VALID,918.531,VALID,0,VALID,77.21,VALID,481.229,VALID,24.0488,VALID,129,VALID,2.12734,
2015-04-26, 08:50:04,VALID,918.516,VALID,0,VALID,77.2176,VALID,471.237,VALID,24.0079,VALID,94,VALID,2.15039,
2015-04-26, 08:51:04,VALID,918.515,VALID,0,VALID,76.4247,VALID,431.484,VALID,24.0878,VALID,98,VALID,0.266016,
2015-04-26, 08:52:04,VALID,918.519,VALID,0,VALID,75.2507,VALID,355.845,VALID,24.0292,VALID,112,VALID,0.021875,
2015-04-26, 08:55:04,VALID,918.525,VALID,0,VALID,74.1606,VALID,331.563,VALID,24.0097,VALID,135,VALID,0.0679687,
2015-04-26, 08:56:04,VALID,918.507,VALID,0,VALID,76.6382,VALID,352.514,VALID,23.9493,VALID,124,VALID,0,
2015-04-26, 08:57:04,VALID,918.501,VALID,0,VALID,75.6319,VALID,382.598,VALID,24.086,VALID,163,VALID,0,
2015-04-26, 08:58:04,VALID,918.506,VALID,0,VALID,74.5799,VALID,400.755,VALID,24.1659,VALID,140,VALID,1.01133,
2015-04-26, 08:59:04,VALID,918.515,VALID,0,VALID,74.496,VALID,383.565,VALID,24.0878,VALID,130,VALID,2.02266,
2015-04-26, 09:00:04,VALID,918.475,VALID,0,VALID,77.4005,VALID,420.74,VALID,24.0488,VALID,110,VALID,0,
2015-04-26, 09:01:04,VALID,918.468,VALID,0,VALID,76.7907,VALID,461.675,VALID,24.1464,VALID,100,VALID,0.661719,
2015-04-26, 09:02:04,VALID,918.467,VALID,0,VALID,77.9571,VALID,398.929,VALID,24.2031,VALID,100,VALID,0.310156,
2015-04-26, 09:03:04,VALID,918.463,VALID,0,VALID,75.9902,VALID,453.724,VALID,24.2635,VALID,163,VALID,0.272266,
2015-04-26, 09:04:04,VALID,918.443,VALID,0,VALID,74.8772,VALID,499.924,VALID,24.3398,VALID,148,VALID,0.0078125,
2015-04-26, 09:05:04,VALID,918.438,VALID,0,VALID,74.7781,VALID,501.213,VALID,24.4178,VALID,155,VALID,0,
2015-04-26, 09:06:04,VALID,918.407,VALID,0,VALID,76.4552,VALID,501.75,VALID,24.5155,VALID,147,VALID,0,
2015-04-26, 09:07:04,VALID,918.398,VALID,0,VALID,76.8135,VALID,496.7,VALID,24.5155,VALID,107,VALID,0.875391,
2015-04-26, 09:08:04,VALID,918.372,VALID,0,VALID,76.6839,VALID,504.866,VALID,24.6131,VALID,87,VALID,0.878125,
2015-04-26, 09:09:04,VALID,918.403,VALID,0,VALID,75.0678,VALID,516.147,VALID,24.6521,VALID,127,VALID,1.03164,
2015-04-26, 09:10:04,VALID,918.397,VALID,0,VALID,72.2319,VALID,513.031,VALID,24.6912,VALID,103,VALID,1.21719,
2015-04-26, 09:11:04,VALID,918.37,VALID,0,VALID,75.6319,VALID,520.445,VALID,24.6912,VALID,150,VALID,0.749609,
2015-04-26, 09:12:04,VALID,918.366,VALID,0,VALID,74.4045,VALID,522.379,VALID,24.7497,VALID,158,VALID,0.353906,
2015-04-26, 09:13:04,VALID,918.356,VALID,0,VALID,71.6296,VALID,526.139,VALID,24.8474,VALID,148,VALID,0.459375,
2015-04-26, 09:14:04,VALID,918.358,VALID,0,VALID,73.8633,VALID,526.247,VALID,24.9645,VALID,122,VALID,0.0609375,
2015-04-26, 09:15:04,VALID,918.357,VALID,0,VALID,73.1009,VALID,527.429,VALID,24.9645,VALID,120,VALID,0.342969,
2015-04-26, 09:16:04,VALID,918.333,VALID,0,VALID,71.0807,VALID,530.544,VALID,24.945,VALID,168,VALID,0.452734,
2015-04-26, 09:17:04,VALID,918.338,VALID,0,VALID,73.4669,VALID,533.768,VALID,25.0426,VALID,169,VALID,0,
2015-04-26, 09:18:04,VALID,918.34,VALID,0,VALID,71.3399,VALID,537.85,VALID,25.0602,VALID,154,VALID,0.71875,
2015-04-26, 09:19:04,VALID,918.334,VALID,0,VALID,73.4592,VALID,535.594,VALID,25.1969,VALID,154,VALID,0,
2015-04-26, 09:20:04,VALID,918.356,VALID,0,VALID,70.2727,VALID,535.057,VALID,25.355,VALID,168,VALID,0,
2015-04-26, 09:21:04,VALID,918.339,VALID,0,VALID,72.3081,VALID,541.611,VALID,25.4331,VALID,153,VALID,0,
2015-04-26, 09:22:04,VALID,918.351,VALID,0,VALID,70.0439,VALID,542.9,VALID,25.3746,VALID,152,VALID,0,
2015-04-26, 09:23:04,VALID,918.354,VALID,0,VALID,71.7897,VALID,551.388,VALID,25.3141,VALID,129,VALID,0,
2015-04-26, 09:24:04,VALID,918.38,VALID,0,VALID,70.7377,VALID,554.826,VALID,25.3355,VALID,196,VALID,0.125,
